Torna al catalogo

STARLINK-5363

AttivoComunicazioniVLEO
NORAD 55497·PAYLOAD·🇺🇸 United States

Lanciato Feb 2, 2023 da Cape Canaveral Space Force Station

Loading…

Prossimi Passaggi (prossime 24 ore)

TLE

AggiornatoSource: CelesTrak SupGP

Epoca: Sep 15, 2026, 03:11 UTC

1 55497C 23015BA  26258.13312500  .00019014  00000+0  68881-3 0  2585
2 55497  43.0043 349.9944 0002086 271.7142 189.0003 15.27562056    19

Traccia STARLINK-5363 in tempo reale con AllMySat

Download on the App Store